Theta_e
320 320 319 320 320 319 320 320 319 319 321 321 320 321 323 323 328 333 340 338 335 335 335 334 333 334 333 333 333 333 333 333 333 333 333 334 335 335 335 335 335 336 336 335 335 335 336 339 342 343 344 345 345 347 349 350 349 350 349 349 350 350 350 350 351 353 355 354 354 353 352 353 353 349 347 346 344 344 345 346 348 346 342 342 346 347 347
319 319 319 319 319 319 319 319 319 319 320 320 320 322 323 325 331 336 339 337 337 336 334 334 333 333 333 332 332 332 332 332 332 332 332 333 333 334 334 334 334 335 335 335 334 334 334 336 338 340 341 342 343 345 347 348 348 349 349 350 350 349 349 350 350 351 352 353 353 353 354 355 355 353 351 348 345 343 344 345 346 347 344 342 342 345 347
318 318 318 318 318 318 317 318 319 318 318 319 321 323 323 327 333 336 337 337 336 334 333 334 333 332 332 332 332 332 332 332 332 332 333 332 333 333 333 333 333 333 334 334 334 334 333 334 335 336 338 340 341 343 344 345 346 348 349 351 351 350 352 352 350 349 351 352 353 353 354 354 355 354 352 352 350 347 345 344 344 345 346 345 343 343 345
317 318 318 318 317 317 316 316 317 317 317 317 320 323 324 327 333 335 336 335 334 333 333 332 332 333 332 331 331 331 331 331 331 332 332 332 332 332 332 333 332 332 332 333 334 333 333 333 334 334 335 338 339 340 340 341 343 345 347 349 349 350 352 352 350 349 350 350 352 353 354 355 355 353 351 352 353 352 350 349 347 345 344 345 345 344 344
316 317 318 317 316 315 313 315 317 318 318 317 319 322 324 328 333 335 334 334 334 332 332 331 331 332 332 331 331 330 330 330 329 330 330 330 331 331 332 331 331 331 331 332 332 333 332 332 333 333 333 335 338 339 339 339 340 341 343 345 346 347 349 351 351 350 351 351 352 352 353 353 354 354 352 350 351 352 352 351 350 348 347 347 346 345 345
316 317 317 317 315 313 314 317 318 317 318 318 318 322 325 328 331 333 333 333 332 331 331 330 330 330 330 330 330 329 329 329 328 328 328 328 328 329 330 330 330 329 329 330 331 332 332 331 332 332 332 333 335 337 337 339 339 338 337 339 341 342 344 346 348 349 350 351 352 352 352 352 353 354 353 351 349 348 349 350 349 349 350 350 349 349 348
317 317 317 316 315 315 318 320 320 320 319 318 319 325 327 327 330 332 333 331 331 331 331 330 330 330 329 329 328 328 327 327 327 327 326 327 326 326 327 328 328 327 326 328 329 330 331 330 330 331 331 331 333 335 335 336 338 337 335 334 335 336 338 341 343 345 347 348 349 350 351 353 353 353 353 353 351 349 348 349 349 350 352 352 352 352 352
318 316 316 316 318 320 321 322 321 322 323 322 324 327 328 328 329 331 332 331 331 331 330 330 330 330 329 328 327 327 326 326 326 325 325 325 325 324 325 325 326 326 324 325 326 328 330 330 329 330 331 331 331 332 332 333 336 336 333 329 330 333 335 337 339 340 341 343 345 346 348 350 352 352 352 353 353 351 351 352 353 352 353 353 353 354 355
318 316 315 318 320 320 320 322 321 322 323 323 325 325 326 328 329 330 330 330 330 331 330 330 330 329 328 328 326 325 324 324 324 324 323 323 323 323 324 324 325 325 322 322 325 325 327 328 327 328 330 330 330 329 329 330 334 334 330 324 325 328 330 333 335 337 338 338 339 343 345 347 349 350 350 351 352 352 352 353 354 354 352 352 353 353 354
318 316 315 317 318 318 319 321 322 320 320 321 323 324 325 327 328 329 330 328 329 329 328 328 328 328 329 328 326 325 324 322 323 323 322 322 322 322 322 323 324 323 321 322 324 324 324 325 324 326 329 330 330 328 325 326 332 332 325 320 321 323 324 327 330 335 339 337 334 335 339 343 345 347 348 350 351 351 353 354 354 354 353 353 353 352 352
317 316 315 316 316 318 321 322 322 321 320 322 322 322 322 325 326 327 328 328 327 326 326 326 327 327 329 328 325 324 323 322 322 322 322 322 321 321 322 323 322 322 322 323 324 323 324 324 322 324 328 330 331 330 326 326 330 329 322 318 319 319 320 322 325 331 337 337 334 332 332 335 339 342 346 349 350 350 351 353 354 354 355 355 354 353 352
317 317 316 315 317 321 322 321 321 321 322 322 320 317 319 323 325 325 326 325 324 323 324 324 324 325 326 326 324 323 322 322 322 322 321 321 321 321 321 321 320 321 322 323 323 323 324 324 323 324 327 327 327 328 327 329 331 330 325 321 318 317 318 319 322 328 331 332 334 336 335 331 331 334 338 343 349 349 348 349 351 353 355 356 356 355 354
316 316 316 316 319 323 322 320 320 320 319 317 316 317 321 323 324 323 323 322 322 323 322 322 323 324 324 323 322 322 322 322 322 321 321 321 321 321 321 320 320 321 322 322 322 323 324 324 324 325 324 321 319 319 323 329 332 332 329 324 319 317 318 317 318 323 323 323 329 337 338 334 331 331 332 335 340 345 347 347 349 350 351 353 355 355 355
316 316 316 317 320 324 322 320 319 317 316 317 318 321 323 323 322 322 321 321 322 322 322 321 322 323 322 321 321 321 321 321 321 320 321 321 321 321 321 321 321 322 322 322 322 323 323 324 325 325 322 320 320 319 322 328 331 332 331 327 322 318 318 318 318 318 320 322 325 329 334 336 334 330 330 331 332 336 341 342 344 347 349 349 351 353 355
316 316 315 316 320 323 321 319 318 317 319 321 323 324 323 322 321 321 321 321 321 321 321 321 322 321 320 320 320 320 320 320 320 320 321 321 321 321 321 321 321 321 321 322 322 322 323 323 324 324 323 324 325 325 326 328 330 331 331 329 327 324 321 320 319 320 324 326 323 321 329 337 336 331 330 333 332 333 337 338 339 341 343 343 344 348 351
317 317 317 318 321 322 321 320 321 321 323 324 324 322 321 321 321 320 320 321 320 320 321 321 320 319 319 319 319 320 319 319 319 320 320 320 320 320 320 320 320 320 320 321 320 321 322 322 323 324 325 326 326 326 327 327 328 330 330 330 329 329 327 323 320 323 328 328 326 327 330 331 330 328 330 333 334 334 337 339 339 339 341 342 345 346 347
319 320 320 321 321 321 321 322 323 323 323 323 322 321 320 320 319 319 320 321 321 321 321 319 318 317 317 318 319 318 318 318 318 319 319 319 319 319 319 319 319 319 319 319 319 320 321 321 321 322 323 324 324 325 326 325 325 327 329 329 330 329 328 327 324 324 326 328 330 332 327 322 325 331 335 337 338 337 338 338 339 340 342 344 348 350 350
321 321 322 322 321 321 321 322 322 322 322 321 321 320 320 320 319 319 320 321 321 321 319 318 317 317 317 317 317 317 317 318 318 318 318 318 318 318 318 318 318 318 318 318 319 319 320 320 321 321 321 322 323 324 325 325 325 326 327 328 329 328 328 329 327 324 325 328 330 330 327 326 329 332 333 334 336 339 340 340 340 339 338 338 341 345 348
320 321 322 321 321 321 320 321 321 321 320 319 318 318 319 320 320 319 319 320 321 320 319 318 317 317 317 317 317 317 317 317 317 317 317 317 317 317 317 317 317 317 317 318 318 319 319 319 320 320 321 322 322 323 324 325 326 326 326 327 327 327 327 328 327 326 327 329 330 330 329 329 327 324 323 326 330 335 338 339 339 337 333 331 333 335 338
319 320 321 321 321 320 320 319 319 319 319 319 318 318 320 320 319 319 319 318 318 318 318 317 317 317 317 317 317 317 316 316 316 316 316 316 316 316 316 316 316 316 317 317 317 318 319 319 319 320 320 321 322 322 323 324 324 325 326 326 327 327 326 327 327 326 327 329 329 329 329 329 328 326 324 324 324 325 327 330 332 332 330 330 330 330 331
318 319 321 320 320 320 319 319 318 318 319 319 318 319 320 319 319 318 318 316 316 317 317 317 317 317 317 316 316 316 315 316 315 315 315 315 315 315 315 316 316 316 316 317 317 318 318 318 318 319 319 320 321 322 322 323 324 324 325 325 325 325 325 326 326 326 327 328 328 327 327 327 329 328 323 320 319 318 319 322 324 325 326 328 330 330 329
319 320 321 320 320 320 319 318 317 317 318 318 318 318 317 317 317 317 317 316 316 316 317 317 316 316 316 315 315 315 315 315 315 314 314 314 314 315 315 315 316 316 316 317 317 317 317 318 318 318 319 319 320 321 322 322 323 323 324 324 324 324 324 325 325 326 326 326 326 326 325 325 325 323 319 316 316 317 317 319 320 322 323 324 327 329 329
321 321 321 321 321 321 320 319 318 317 317 317 317 317 316 316 316 316 316 316 315 315 315 315 315 315 315 314 314 314 314 314 314 314 314 314 314 314 315 315 315 316 316 316 316 317 317 316 317 318 319 319 320 320 321 322 322 323 323 323 324 324 324 324 324 325 325 324 325 325 324 324 325 324 320 317 315 316 317 318 318 319 320 321 323 325 327
321 320 319 320 321 321 319 319 318 318 317 317 317 317 316 316 315 315 315 315 315 315 314 314 314 313 313 313 313 313 313 313 313 313 313 313 313 314 314 315 315 316 316 316 316 316 316 316 316 317 319 320 320 320 320 321 322 322 323 323 324 325 324 325 325 324 323 323 324 324 323 324 325 326 324 322 319 316 316 317 317 317 318 319 321 322 325
320 319 318 319 320 320 319 318 318 318 317 317 316 316 316 316 315 315 314 314 314 314 313 313 313 313 313 313 313 313 313 312 312 312 312 313 313 314 314 315 315 315 315 315 315 315 315 315 316 317 318 320 321 321 321 321 322 322 323 323 324 324 325 325 324 323 322 322 322 323 323 324 325 326 326 326 323 318 315 315 316 317 318 319 320 321 324
319 320 319 318 319 319 319 318 318 318 317 316 316 316 316 315 315 314 314 314 313 313 313 313 313 313 312 313 312 312 312 311 311 312 312 313 314 314 314 315 315 315 314 314 314 314 315 315 315 316 318 320 320 321 321 321 321 321 322 323 323 323 324 324 323 323 322 322 322 322 323 323 323 323 324 323 321 318 316 315 316 318 321 323 323 323 323
318 319 319 319 319 319 318 318 318 318 317 317 316 316 316 316 315 314 314 314 313 313 313 312 312 312 312 312 312 311 311 311 311 312 313 314 314 314 314 314 314 314 314 314 313 314 314 314 314 315 317 318 318 319 319 320 320 321 321 322 322 323 323 323 322 322 321 321 322 322 322 321 320 319 318 318 317 316 316 318 321 324 326 328 328 326 324
318 318 318 319 319 318 318 318 318 318 317 316 316 315 315 316 315 315 314 313 312 312 312 312 312 312 312 312 311 311 311 311 312 312 313 314 314 313 313 313 313 313 313 313 313 313 314 313 313 313 315 315 316 316 317 318 319 320 320 321 321 322 322 321 321 321 320 320 320 320 320 318 317 317 317 317 317 318 320 323 326 328 329 329 328 328 326
317 317 318 319 318 318 318 317 317 317 316 316 316 315 315 315 315 314 314 313 312 312 313 312 312 312 312 311 311 311 311 311 312 312 312 313 313 312 312 312 312 312 312 312 312 312 312 312 312 312 313 313 314 314 314 315 316 317 318 318 318 319 319 319 319 319 319 319 319 318 318 317 317 318 319 319 320 322 323 325 327 328 328 328 328 328 328
317 317 317 318 318 318 318 317 316 317 316 316 316 315 315 315 315 314 314 314 313 313 313 312 312 312 311 311 311 311 311 311 311 312 312 312 312 312 312 311 311 311 311 311 311 311 310 311 311 312 312 312 312 312 312 313 313 314 315 315 316 317 317 317 317 317 317 318 318 318 317 318 318 319 320 320 321 322 323 325 326 326 327 327 328 328 328
318 318 318 318 318 318 318 317 316 316 316 316 315 315 315 315 315 314 314 313 313 313 312 312 311 311 311 311 311 311 311 311 311 312 312 311 311 311 311 310 310 311 311 311 310 310 310 310 310 311 311 311 310 310 311 311 311 312 313 314 314 315 315 316 316 316 316 317 317 317 317 318 319 319 319 320 321 322 323 324 324 325 326 326 326 326 326
318 318 318 318 318 318 318 318 317 316 316 315 315 315 315 315 314 314 314 313 313 312 312 312 311 311 311 311 311 311 311 311 312 312 311 311 311 310 310 310 310 310 310 310 310 310 310 309 310 310 311 310 309 309 309 310 310 311 312 312 312 313 313 314 314 314 315 315 315 316 317 318 318 319 319 319 320 321 322 322 322 323 324 324 325 325 325
316 317 317 317 317 317 317 317 317 317 316 316 315 315 315 314 314 314 314 314 313 312 311 312 311 311 311 311 311 311 311 311 311 311 311 310 310 310 310 310 309 309 309 309 309 309 309 309 309 310 309 309 308 308 308 309 309 310 310 311 311 311 311 311 312 312 313 313 314 315 316 317 317 318 318 318 319 320 321 321 321 322 322 322 323 323 323
314 314 314 315 316 316 316 317 317 317 316 315 315 315 315 314 314 314 314 313 313 312 312 312 311 311 311 311 311 311 311 311 311 310 310 310 310 310 309 309 309 309 309 309 309 309 309 309 309 308 308 308 307 307 308 308 308 309 309 309 309 310 310 310 310 311 311 312 312 313 314 315 316 316 317 317 317 318 319 320 320 320 320 320 321 322 322
314 313 312 313 314 314 315 316 316 316 316 315 315 315 315 314 314 314 313 312 312 312 312 312 311 311 311 311 311 311 310 310 310 310 310 309 309 309 309 309 309 308 308 308 309 309 309 308 308 307 307 307 306 307 307 307 308 308 308 308 308 308 309 309 309 310 310 311 311 312 312 313 314 315 315 315 316 316 318 318 318 318 318 319 319 320 321
314 313 312 312 312 313 314 314 314 315 315 315 315 315 315 314 313 313 312 312 312 311 311 311 311 311 311 311 311 310 310 310 310 309 309 309 308 308 308 308 308 308 308 308 308 308 308 307 307 306 306 305 305 306 306 306 307 307 307 307 307 307 308 308 308 309 309 309 310 311 311 312 312 313 313 313 314 315 316 317 317 317 318 318 318 319 319
313 313 312 312 312 312 313 313 314 314 314 314 315 315 315 314 312 312 312 312 312 311 311 311 311 311 311 311 310 310 310 310 309 309 308 308 308 307 307 307 307 307 307 308 308 307 307 306 306 305 305 304 305 305 306 306 306 306 305 305 305 306 306 306 307 307 308 308 309 309 310 310 311 311 312 313 314 314 315 316 316 316 317 317 317 317 317
313 312 312 312 312 311 311 312 312 313 313 313 313 313 313 313 312 311 311 312 312 311 311 311 311 311 311 311 310 310 309 309 308 308 307 307 307 306 306 306 306 306 307 307 307 306 306 306 305 304 304 304 304 305 305 305 305 304 304 304 304 304 305 305 306 306 307 308 308 308 309 309 309 310 311 312 313 313 314 314 314 314 315 315 316 315 315
311 311 311 311 312 312 311 311 311 311 312 312 313 313 312 312 311 311 311 312 312 312 311 311 311 311 311 310 310 310 309 308 308 307 307 306 306 306 305 305 306 306 306 305 305 305 304 304 304 303 303 304 304 304 304 304 303 303 302 302 303 303 304 305 305 306 306 306 307 307 308 308 308 309 310 310 311 311 312 312 312 312 313 314 314 314 314
309 310 310 310 310 311 311 311 310 310 311 312 313 313 313 312 311 311 311 312 312 312 311 311 311 311 310 310 310 309 309 308 307 307 306 306 306 305 305 305 306 305 305 304 304 303 303 303 303 303 303 303 303 303 303 303 302 301 301 301 302 303 304 304 305 305 305 306 306 306 307 307 308 308 309 309 309 310 310 310 311 311 312 312 313 313 313
308 309 309 309 309 309 310 310 310 310 310 310 311 313 313 312 311 311 311 312 312 312 311 311 311 310 310 310 309 309 308 307 307 306 306 305 305 305 305 305 305 305 304 303 303 302 302 302 302 303 302 302 302 302 302 301 300 300 300 301 302 303 303 304 304 304 304 304 304 305 305 306 306 307 307 308 308 308 308 309 309 310 310 311 311 311 311
307 308 308 308 308 308 309 310 310 310 310 310 310 311 313 312 311 311 311 311 311 311 311 311 311 310 310 309 309 308 307 307 306 306 305 305 305 305 305 305 305 304 303 303 302 301 301 302 302 302 301 301 300 300 299 298 298 300 300 301 302 302 303 303 303 303 303 303 303 304 304 304 305 305 306 306 306 306 307 307 307 308 308 309 309 309 309
306 306 307 307 307 307 308 309 309 310 310 310 309 310 312 312 311 310 310 310 310 311 312 311 310 310 310 309 308 308 307 306 306 306 305 305 305 305 304 305 304 303 303 302 301 301 301 301 301 301 300 300 299 298 297 298 299 300 301 301 301 301 301 302 302 302 302 302 302 302 303 303 304 304 304 305 305 305 305 306 306 306 307 307 307 307 307
305 305 305 306 306 306 306 307 307 308 309 309 308 308 310 311 311 310 309 310 310 311 311 311 310 309 309 309 308 307 307 306 306 306 305 305 305 305 305 304 303 303 303 302 302 301 301 301 301 300 300 300 299 297 297 298 300 300 300 300 300 300 300 300 301 301 301 301 301 302 302 302 303 303 303 303 304 304 304 305 305 305 305 306 306 306 306
304 304 304 305 305 304 305 305 305 306 308 309 308 307 308 310 310 310 309 310 310 310 310 310 309 309 309 308 308 307 307 306 306 305 305 305 305 305 305 304 303 303 303 302 301 301 301 301 300 300 300 299 297 297 298 299 299 299 299 299 299 299 299 299 299 299 299 300 300 300 301 301 301 302 302 302 302 303 303 303 304 304 304 304 304 304 304
304 304 304 304 304 305 304 303 304 305 306 308 308 308 307 308 309 309 309 309 309 309 309 309 309 308 308 308 307 306 306 306 306 305 305 305 305 304 304 303 303 303 302 302 301 301 301 300 300 300 299 297 297 297 298 298 298 298 298 298 298 298 298 298 298 298 298 298 299 299 300 300 300 301 301 301 301 302 302 302 302 302 302 303 303 303 303
305 305 304 304 305 304 303 303 303 304 305 306 308 308 308 308 309 308 308 308 309 308 308 308 308 308 307 307 307 306 306 306 306 306 305 305 304 304 304 303 303 303 302 302 301 301 300 300 300 299 298 297 297 297 298 297 297 297 297 297 297 297 297 297 297 297 297 297 298 298 298 299 299 300 300 300 300 300 301 301 301 301 301 301 301 301 301
305 305 305 305 305 304 304 303 303 304 304 305 306 308 308 308 308 308 309 309 308 308 308 308 308 307 307 307 307 307 306 306 306 305 305 305 304 304 304 303 303 302 302 301 301 300 300 300 300 299 298 297 297 297 297 297 297 297 296 296 297 297 297 296 296 296 296 297 297 297 297 297 298 298 299 299 299 299 299 299 299 299 299 299 299 299 300
304 304 304 305 305 305 304 304 304 305 306 306 305 306 308 308 308 308 309 308 308 308 308 308 307 307 307 307 307 306 306 306 305 305 305 305 304 304 303 303 302 302 301 301 301 301 300 300 299 299 298 298 297 297 297 297 296 296 296 296 296 296 296 296 296 296 296 296 296 296 296 296 297 297 297 298 298 298 298 298 298 297 298 298 298 298 298
305 304 304 304 304 304 304 304 304 305 307 307 305 306 308 309 308 308 308 308 307 307 308 307 307 307 307 307 306 306 305 305 305 305 305 304 304 303 303 303 302 302 301 301 301 301 300 300 299 299 298 298 298 297 297 297 296 296 295 295 295 295 296 296 296 296 295 295 295 295 296 296 296 296 296 296 297 297 297 297 296 296 296 296 296 296 296
305 304 304 305 305 305 305 305 305 305 306 306 306 306 308 309 308 307 307 307 307 307 307 307 307 307 307 306 306 305 305 305 305 304 304 304 303 303 302 302 302 302 301 301 301 301 300 300 299 299 299 298 298 298 297 297 297 296 296 295 294 295 295 295 295 295 295 295 295 295 295 295 295 295 295 295 296 296 296 296 296 295 295 295 295 295 295
305 305 305 305 305 305 305 305 305 305 305 305 305 306 307 308 307 306 306 306 306 307 306 306 306 306 306 306 305 305 304 304 304 304 304 304 303 303 302 302 302 302 301 301 301 301 300 300 300 299 299 299 298 298 297 297 297 297 296 295 295 294 294 295 295 294 294 294 294 294 294 294 294 294 294 294 295 295 295 295 295 295 295 295 295 295 295
Wind_Speed
5 2 6 5 5 8 2 5 3 1 5 7 7 8 9 5 4 8 11 13 14 14 15 14 13 12 12 12 13 13 12 13 13 13 13 14 14 14 15 16 17 18 19 19 20 21 18 11 6 4 2 1 1 3 7 5 2 4 4 6 11 14 16 18 22 25 23 20 22 25 25 23 24 26 26 25 25 25 25 25 23 23 23 22 22 22 23
4 3 5 5 5 6 4 3 2 1 4 6 7 10 9 2 10 14 14 13 12 12 13 14 13 14 14 13 13 13 13 13 13 12 13 13 13 14 15 15 16 17 18 19 19 20 20 16 12 10 7 3 3 5 2 2 1 1 1 3 6 10 11 10 12 19 22 20 19 22 25 25 23 24 23 23 25 26 25 25 24 22 23 23 23 22 22
5 5 5 5 6 5 4 4 3 1 5 7 5 6 5 2 11 15 16 16 11 10 14 15 14 14 13 13 12 12 12 13 13 12 12 12 13 14 14 15 15 16 17 18 19 19 20 18 16 14 15 14 9 2 3 2 1 3 2 2 3 4 6 8 7 12 17 19 19 20 21 23 25 26 23 20 22 25 26 26 25 24 22 22 23 22 21
6 7 8 8 8 6 7 10 6 4 8 7 4 5 5 5 12 15 15 13 9 9 15 16 14 13 13 13 13 11 9 9 12 14 13 12 12 13 14 14 15 15 16 17 18 18 17 18 17 16 16 16 15 13 10 7 6 4 2 2 3 3 5 7 8 11 13 14 17 20 19 15 16 23 26 25 24 21 20 21 23 24 24 23 23 23 22
7 9 8 7 7 7 8 10 9 8 8 7 6 7 3 6 14 14 10 10 10 12 14 13 12 13 12 12 12 10 9 9 10 11 12 12 12 12 13 14 14 15 15 15 16 16 16 16 16 15 16 16 16 16 15 14 13 9 5 4 4 4 6 7 7 9 11 12 14 18 19 15 13 15 20 24 25 23 21 19 17 20 22 23 23 23 23
7 10 6 4 6 7 4 4 7 11 11 10 10 6 4 5 8 11 10 11 13 13 13 13 14 13 12 13 14 11 8 7 9 9 8 10 11 11 12 13 13 14 15 15 15 16 15 15 14 14 15 16 15 15 16 15 15 14 11 8 7 6 5 6 8 9 11 11 10 10 11 14 17 17 16 17 21 22 22 22 19 19 19 21 23 23 24
7 7 3 5 6 4 1 4 3 3 7 8 4 7 9 6 8 14 14 14 15 15 14 15 16 17 15 13 14 12 8 6 8 7 6 7 9 9 11 12 12 13 14 15 15 15 15 14 14 14 15 15 14 14 14 14 14 15 13 11 10 9 9 8 7 9 10 12 11 10 9 8 10 12 13 14 17 18 17 17 19 21 20 21 24 26 26
5 5 6 5 2 1 4 5 5 4 4 4 6 10 9 6 9 14 15 14 14 16 17 16 16 17 15 12 10 10 6 2 5 7 6 7 8 9 10 11 12 12 13 13 14 14 14 13 14 14 14 15 14 14 14 14 14 14 14 14 14 13 14 14 10 7 8 10 11 13 13 11 8 7 8 11 14 16 15 15 15 17 20 22 24 25 26
5 7 7 4 1 2 3 4 3 2 3 4 5 6 6 6 8 12 14 14 14 15 18 19 18 18 16 11 9 12 10 4 3 5 6 5 6 8 8 9 11 11 12 12 13 13 12 12 14 14 14 14 14 14 14 15 14 14 14 15 17 17 16 17 15 11 9 10 10 10 12 13 13 12 11 10 10 12 14 16 16 17 20 23 24 24 25
5 6 7 6 5 5 6 7 6 4 3 1 2 5 7 8 11 13 13 14 15 16 17 19 19 17 12 7 8 13 14 9 4 4 5 5 5 7 7 8 10 11 12 12 11 12 12 12 13 14 13 13 14 14 15 15 15 15 15 16 17 17 17 18 17 14 13 13 12 10 10 10 12 14 14 12 9 9 12 14 16 18 20 22 24 25 25
5 5 6 6 6 3 2 8 8 4 3 6 4 4 6 8 13 16 15 14 15 16 16 18 17 12 7 6 7 10 12 9 6 4 3 4 5 5 6 8 9 10 12 11 10 11 12 12 13 14 12 11 12 14 15 16 15 15 17 17 17 17 16 17 17 15 13 13 12 12 11 10 10 11 12 12 11 9 10 11 14 17 18 20 22 24 25
6 6 5 5 3 2 6 10 8 7 8 8 3 5 6 11 15 15 15 14 12 10 9 13 10 4 4 7 9 9 9 7 5 3 2 3 4 5 6 7 8 9 10 10 10 11 12 12 13 12 11 11 11 13 15 14 14 15 17 18 19 18 17 16 16 16 15 13 11 13 14 12 9 10 11 12 14 13 12 12 13 15 17 18 20 22 24
7 6 6 4 1 5 8 10 10 10 8 6 5 3 5 14 16 12 12 13 9 7 7 9 9 9 11 11 9 9 7 5 3 2 1 1 3 4 6 7 8 7 8 9 10 11 11 12 12 12 12 13 14 15 14 12 12 13 16 19 21 20 19 17 15 15 16 14 12 11 13 12 11 10 9 11 13 16 16 16 16 17 20 21 21 22 22
6 6 6 4 3 5 7 10 11 9 4 3 3 4 6 12 14 11 10 8 11 12 11 11 10 10 12 10 7 7 6 3 2 1 0 1 2 5 6 7 6 6 7 8 9 10 11 11 11 12 14 14 15 15 13 12 12 12 14 18 21 22 21 18 16 15 15 15 14 11 10 11 13 12 11 11 11 11 13 14 16 18 22 24 25 26 24
6 6 7 5 3 5 9 10 7 3 0 3 8 10 10 10 9 8 10 11 12 9 8 9 8 7 8 7 6 6 4 2 2 1 2 3 4 5 6 6 7 8 7 8 9 10 11 11 11 12 13 13 13 13 12 11 11 12 13 15 18 20 20 18 17 16 14 14 15 13 10 10 13 15 13 12 11 10 9 11 13 15 18 21 24 27 27
4 5 4 1 2 7 9 8 6 7 8 10 11 11 11 11 9 8 10 12 10 6 5 5 4 3 4 5 5 5 3 2 2 3 4 5 5 5 6 7 8 8 8 9 10 10 10 11 11 11 12 12 12 12 12 11 11 11 12 13 14 15 17 18 17 15 12 13 14 11 10 11 14 14 15 15 13 12 12 12 12 13 14 15 18 22 25
2 1 2 2 5 9 10 9 11 14 14 11 9 10 10 11 10 9 11 14 12 7 5 3 2 1 2 3 3 4 2 2 3 4 4 5 5 6 7 8 9 9 10 10 11 11 11 12 12 11 11 12 13 13 13 13 12 11 11 12 12 14 17 17 16 14 13 12 10 9 11 13 12 12 14 15 15 16 17 15 12 11 12 13 15 17 19
1 3 5 7 7 8 11 12 12 13 12 9 8 7 8 10 11 9 10 15 14 9 5 3 2 2 2 2 2 1 1 2 3 4 4 5 6 7 8 9 10 10 11 11 12 12 13 13 13 13 13 13 13 14 14 14 13 12 11 12 12 14 15 15 15 15 13 10 9 11 12 10 9 11 13 13 13 15 17 17 13 12 12 14 16 17 17
2 3 6 8 8 8 10 11 10 10 9 7 6 5 6 11 12 9 8 11 12 9 6 4 3 3 2 2 1 1 2 2 3 4 5 6 7 8 8 10 10 10 10 11 13 14 14 14 14 14 14 14 14 14 14 14 13 13 12 12 12 12 13 13 15 14 11 10 10 11 10 9 11 13 15 14 13 13 15 17 18 17 16 14 15 17 18
4 2 5 7 7 8 9 8 9 10 9 7 6 5 7 11 11 9 9 9 8 8 7 6 5 4 3 2 1 0 1 2 4 5 6 7 8 8 9 10 10 10 10 11 12 14 15 16 16 16 15 15 15 15 15 14 14 14 13 12 12 12 13 13 14 12 10 10 10 9 9 11 12 13 15 16 16 16 16 19 22 23 21 19 16 15 16
6 4 7 8 6 5 7 9 9 11 13 14 11 8 9 9 9 8 7 6 5 6 6 6 5 4 3 2 1 1 2 3 4 5 6 8 9 10 10 10 10 10 10 11 12 13 15 16 17 18 17 16 16 16 16 15 15 15 14 13 12 13 13 12 12 11 10 10 10 11 11 12 12 13 16 18 20 20 18 17 20 22 24 22 18 16 15
3 2 1 4 4 4 6 9 10 9 13 16 15 11 9 8 7 7 6 6 5 5 5 5 5 4 4 3 2 2 2 4 5 6 7 8 9 10 10 10 10 10 10 11 12 13 14 15 16 17 18 18 17 16 16 15 15 15 15 14 14 13 13 12 11 10 10 11 12 12 13 13 14 17 19 20 21 21 20 18 18 20 23 23 20 18 16
2 5 9 6 4 4 1 5 7 7 8 11 13 13 10 9 8 8 7 7 7 6 5 6 6 5 4 4 3 3 4 4 5 6 8 8 9 10 10 10 10 10 11 12 12 13 15 15 14 15 15 16 17 17 16 16 16 15 14 15 15 14 14 13 11 10 10 12 13 14 14 13 15 18 21 22 21 21 21 21 21 21 22 23 22 21 19
2 1 4 4 4 3 2 1 5 7 7 8 10 11 10 10 10 10 10 9 7 6 5 6 7 7 7 7 5 5 5 5 5 7 7 8 9 9 9 9 10 11 11 12 13 13 15 16 15 14 13 14 14 16 16 16 16 15 15 15 15 14 13 11 12 13 13 14 15 15 15 13 13 16 19 22 22 21 21 22 23 23 23 23 23 22 21
4 2 0 0 2 3 2 2 5 8 8 9 10 10 11 11 11 11 12 12 11 9 6 5 7 8 7 6 5 5 6 6 6 7 7 7 8 8 8 9 10 11 11 13 14 13 14 16 16 13 13 15 14 12 13 14 13 13 14 13 13 13 12 10 11 14 14 14 14 15 15 14 14 14 16 19 22 23 23 23 24 24 25 25 23 21 19
8 6 5 5 5 5 5 5 7 9 11 11 11 10 11 12 12 10 9 10 11 10 8 6 6 4 3 2 4 6 6 6 6 6 6 7 7 7 8 8 9 10 11 13 14 13 13 16 15 11 11 14 14 11 11 14 14 14 14 14 13 14 13 11 10 11 11 12 14 15 15 14 14 14 15 18 21 24 24 24 24 24 24 24 22 20 20
9 8 7 7 6 7 9 10 10 10 12 13 12 11 11 11 13 13 11 9 8 8 8 9 8 5 2 4 6 6 6 6 6 5 5 6 6 6 7 8 9 10 11 12 13 13 12 14 15 12 11 13 14 11 11 12 13 14 14 14 12 12 10 9 9 9 10 11 13 13 15 17 17 18 20 21 22 23 22 21 21 22 23 21 21 21 22
8 9 10 9 8 9 11 12 12 11 12 12 12 12 11 10 12 13 11 9 6 6 6 6 7 7 6 6 7 7 6 6 5 5 5 5 6 6 7 8 9 10 11 11 12 12 12 13 14 14 13 13 13 12 12 12 10 11 12 13 13 12 11 11 11 11 12 13 15 15 18 21 22 21 21 21 20 19 18 18 19 20 21 21 20 21 22
10 11 10 10 9 10 10 12 12 12 12 13 13 14 13 12 11 10 10 10 10 9 8 7 7 8 8 7 7 7 6 5 5 5 4 5 5 6 7 8 9 10 11 11 11 12 13 13 13 14 15 15 14 14 14 13 11 10 12 14 15 16 16 15 15 15 16 16 16 18 19 20 20 20 19 19 18 17 17 18 19 20 21 20 19 19 19
10 10 10 10 10 10 10 12 13 12 13 15 16 16 15 14 13 12 11 12 13 12 11 10 10 9 8 8 7 7 6 6 5 5 5 5 5 6 6 8 9 9 10 10 11 12 14 13 13 13 15 16 16 15 15 14 12 11 12 13 14 15 15 15 17 18 17 16 15 16 18 18 17 17 18 18 18 17 17 18 18 19 19 19 18 17 18
8 7 8 8 9 10 11 12 13 13 15 16 17 17 18 17 16 16 14 14 14 13 12 11 10 9 9 9 8 7 7 6 5 5 5 5 5 6 6 8 8 9 9 10 10 11 12 14 13 13 13 16 17 16 15 15 14 14 14 14 13 13 13 15 16 17 16 16 16 17 18 18 17 17 18 18 18 17 17 17 17 17 17 17 17 17 18
7 7 8 8 8 10 11 10 11 13 15 17 18 19 19 19 18 17 16 15 14 13 12 11 11 10 10 10 8 7 7 7 6 5 5 5 5 6 6 7 8 9 10 10 9 9 11 14 15 13 13 17 18 17 15 15 15 15 15 15 15 15 15 16 18 19 20 19 18 18 18 18 17 17 18 19 19 18 18 18 19 18 17 17 16 16 18
12 9 8 8 8 10 11 10 11 13 15 17 18 19 19 20 19 17 16 16 15 14 14 13 12 11 10 10 9 8 7 7 6 6 5 6 5 6 7 8 8 9 10 10 9 9 10 13 14 13 14 17 18 17 16 15 15 14 14 14 15 16 16 17 18 19 20 19 18 17 17 18 18 19 19 19 19 19 19 19 19 19 19 18 16 15 18
15 14 16 16 12 10 10 10 11 12 14 16 17 17 18 19 19 18 18 18 17 16 15 14 12 11 11 10 9 8 7 7 7 6 6 6 5 6 7 8 8 9 10 10 9 8 8 10 12 14 16 17 17 16 15 15 14 14 15 15 16 16 16 17 17 17 18 18 18 17 18 18 19 20 20 20 20 19 19 20 20 20 20 20 18 15 18
13 14 17 20 17 13 12 12 11 11 13 14 15 16 17 18 18 19 20 20 18 16 15 14 12 12 12 11 9 9 8 7 7 6 6 6 6 6 7 8 8 9 9 9 9 8 7 7 9 13 17 18 16 15 15 14 14 15 15 16 17 17 17 17 17 17 18 18 19 19 18 18 19 21 21 21 21 20 20 21 21 20 20 20 18 17 19
13 14 16 17 17 14 12 11 11 12 14 13 12 14 18 21 21 19 18 19 18 16 15 14 14 14 13 12 10 9 8 7 6 5 5 5 5 6 7 8 9 9 9 9 9 7 6 7 9 13 17 17 14 13 14 14 15 15 16 17 17 17 17 17 17 17 18 18 18 18 19 19 20 22 22 22 21 20 20 20 20 19 19 19 18 19 20
12 14 14 15 15 15 13 11 12 13 14 14 12 12 16 21 23 20 17 17 18 17 16 16 16 15 14 13 11 9 8 6 5 5 4 4 5 6 7 8 8 8 9 9 8 7 7 9 11 13 15 15 14 13 13 13 15 17 17 17 17 18 18 18 18 18 18 18 18 18 19 19 20 20 20 20 20 20 19 19 19 18 18 19 18 18 18
11 12 12 12 14 15 14 14 14 14 15 17 17 15 16 18 21 21 19 18 19 19 18 17 16 15 14 13 11 10 9 6 5 5 5 5 5 6 7 7 8 8 7 8 8 7 8 10 12 13 14 15 14 13 12 13 16 18 18 18 18 18 18 18 18 18 17 17 18 18 19 19 19 19 20 20 20 20 19 19 20 20 20 21 20 19 18
12 11 11 11 11 13 13 14 14 13 13 15 16 16 16 17 19 22 22 20 20 20 20 19 17 16 15 13 11 10 8 7 6 6 5 5 5 6 6 6 6 6 7 8 9 10 11 12 13 14 14 14 15 14 13 14 16 18 19 19 19 19 18 18 17 17 17 17 17 18 19 19 19 20 20 20 20 20 20 20 21 21 21 19 18 16 15
14 12 11 10 10 11 12 12 12 12 11 11 11 13 15 16 18 22 23 22 22 22 20 20 19 18 15 14 12 10 8 7 6 6 5 5 5 5 5 4 3 4 8 12 13 13 13 13 13 12 13 16 17 16 15 17 20 21 21 20 18 17 17 17 16 17 17 17 17 18 18 18 19 19 20 19 19 19 19 20 21 21 20 18 17 16 16
13 12 11 11 11 10 10 11 11 12 12 12 12 12 14 15 18 21 22 20 21 22 21 20 20 19 16 14 13 10 8 7 6 6 5 5 5 4 4 4 4 6 10 13 13 13 12 12 12 13 16 18 18 17 19 23 25 23 20 18 17 16 16 16 17 17 18 18 18 18 18 18 18 19 19 19 19 19 19 20 20 20 20 19 19 19 19
13 13 13 12 12 11 10 10 11 11 12 13 13 12 12 14 18 22 23 19 19 23 22 20 19 18 16 14 13 10 8 8 7 6 6 5 5 5 5 5 5 8 11 13 12 11 11 12 13 16 17 18 20 22 25 25 23 18 16 15 15 15 15 16 17 18 19 20 20 19 18 18 18 18 18 19 19 19 20 20 19 19 18 17 16 16 17
12 13 13 12 12 11 10 10 11 11 11 12 12 11 11 13 15 20 22 21 20 23 23 20 19 18 16 14 13 10 8 8 7 6 6 6 5 6 7 5 5 8 13 14 13 11 10 11 13 16 18 20 24 26 25 20 15 14 14 14 14 15 16 16 16 17 18 19 19 19 18 18 18 18 18 18 18 18 18 18 17 17 17 16 16 17 18
12 12 13 13 13 14 13 12 12 12 11 10 11 9 10 11 13 17 20 20 19 23 23 20 19 19 16 13 12 10 9 8 8 7 7 6 6 6 7 5 3 7 12 13 11 10 10 12 15 18 20 24 27 26 20 14 12 13 14 14 15 15 16 15 16 16 17 17 18 18 18 18 18 18 18 18 18 19 19 18 17 16 16 17 17 18 19
13 12 12 12 13 14 14 14 14 13 12 11 10 9 9 11 13 17 19 17 18 21 22 20 17 17 15 13 12 11 9 8 8 8 7 7 6 5 4 3 3 7 11 12 9 8 10 14 17 18 21 25 25 20 14 12 12 14 14 14 15 15 15 15 15 16 16 16 17 17 18 18 18 18 18 18 18 18 18 18 18 18 19 18 18 17 18
14 13 13 12 12 11 13 14 15 16 15 12 9 8 8 8 11 17 19 17 17 19 20 17 15 16 15 13 11 10 9 8 8 8 7 7 7 6 5 5 6 9 11 9 7 8 11 15 18 20 23 23 20 14 11 12 13 13 14 14 14 14 14 15 15 15 16 16 17 17 17 18 17 17 17 17 17 17 17 18 19 20 20 19 18 17 17
14 13 13 12 12 12 13 14 14 15 17 15 11 9 8 6 8 13 17 17 16 18 19 17 15 15 15 13 11 11 10 9 8 7 7 6 6 6 6 5 7 10 10 8 7 9 13 15 18 21 22 19 15 11 11 12 13 13 14 14 14 14 14 15 15 16 16 16 16 17 17 17 16 16 16 16 16 17 17 18 19 19 19 18 18 17 18
13 13 12 12 12 12 13 12 11 12 14 14 11 8 7 7 8 11 16 18 18 18 18 16 15 14 14 12 11 10 10 9 8 7 6 6 5 6 6 6 8 10 10 7 8 11 13 15 17 18 17 14 11 11 11 12 12 13 14 14 13 13 14 16 17 17 17 16 16 16 16 16 17 17 17 16 16 16 15 16 17 18 18 16 16 17 18
13 14 13 12 11 10 10 10 9 8 8 10 10 7 5 7 9 12 16 19 20 19 17 15 14 14 13 12 10 8 7 7 6 5 5 5 4 4 5 6 8 9 7 5 6 10 11 13 14 14 12 10 10 10 11 11 12 13 13 13 12 13 14 16 16 16 15 15 16 15 14 14 14 15 15 15 14 12 12 12 13 15 15 15 15 16 17
15 15 13 11 10 10 8 7 7 6 4 5 6 5 5 7 9 13 17 19 19 18 16 15 14 13 12 11 9 7 7 6 5 5 5 4 3 4 5 5 6 6 6 5 6 7 8 10 11 11 9 9 10 10 10 10 11 12 12 13 13 14 14 14 15 14 14 15 16 15 13 12 12 12 13 13 11 9 8 8 9 10 11 11 11 11 12
18 17 12 9 8 9 7 6 6 4 3 2 1 4 8 9 11 16 19 18 15 15 14 14 13 11 9 9 8 7 6 5 4 3 4 3 3 5 6 6 6 6 6 6 6 7 8 9 9 8 7 8 9 9 9 10 10 11 12 14 15 15 14 14 14 13 13 14 15 14 12 12 12 12 12 11 11 11 10 9 9 9 9 8 7 6 6
18 18 15 11 10 9 7 7 8 6 3 2 3 7 12 12 13 15 17 16 13 12 13 14 13 11 8 8 7 6 5 4 4 4 4 4 4 4 6 7 7 6 6 6 7 7 7 8 7 6 6 7 7 8 8 8 8 10 12 14 15 15 13 12 12 12 11 12 12 12 11 11 10 10 10 9 8 9 9 9 8 8 6 5 4 3 2
Wind_Direction
217 305 316 294 320 332 300 165 149 213 236 257 269 255 265 312 73 135 154 150 145 147 146 139 139 139 128 123 125 117 108 104 100 94 87 79 74 72 67 59 55 54 52 50 49 45 44 48 66 108 149 237 267 43 38 22 267 210 200 218 221 221 225 227 225 226 232 241 241 236 239 245 241 232 231 232 228 226 228 227 224 221 219 220 226 229 228
228 245 284 280 293 333 12 109 125 334 264 248 251 256 270 350 109 137 150 145 138 136 135 134 135 132 123 119 120 115 107 103 97 87 80 78 73 67 65 60 54 53 50 49 49 47 43 45 57 71 67 49 241 246 299 19 55 168 195 262 238 224 234 244 232 229 235 242 244 242 243 246 240 230 232 238 236 232 231 230 228 227 224 220 224 230 233
283 241 235 259 274 297 306 258 217 246 271 265 267 259 260 109 120 138 142 136 131 132 131 126 120 121 125 128 127 124 123 118 108 95 77 70 68 64 62 58 53 51 49 46 47 48 45 42 46 52 51 53 61 36 308 304 66 92 102 308 274 235 261 281 256 231 230 234 246 258 255 247 241 236 241 257 256 243 236 233 231 231 230 225 222 227 233
273 246 214 225 248 257 268 262 244 224 239 247 250 241 238 150 134 143 147 141 135 141 137 128 125 136 142 137 126 115 110 107 106 106 92 71 61 59 58 55 51 49 47 43 42 44 46 44 42 41 40 42 46 40 28 22 23 43 66 337 302 260 269 279 261 245 241 239 252 266 270 268 256 244 248 268 277 266 254 247 238 233 234 232 227 226 229
264 249 217 217 241 238 245 251 239 226 231 239 233 225 216 131 143 151 155 145 137 143 145 140 145 152 148 136 121 98 78 70 70 84 88 75 60 56 56 53 49 46 43 41 39 37 40 43 42 41 38 37 37 33 29 26 18 11 15 5 334 294 276 267 256 253 251 251 260 266 266 274 285 272 259 262 267 271 281 280 254 234 234 236 235 233 232
267 258 218 193 233 234 243 257 233 219 214 226 231 196 100 88 139 143 139 141 145 149 153 155 152 138 122 121 117 106 105 98 74 67 75 72 62 56 56 53 49 45 40 36 35 34 35 38 38 38 37 37 37 34 33 30 20 10 9 16 16 3 336 289 265 262 260 260 273 285 270 262 272 279 273 259 251 256 274 280 262 242 236 233 233 236 235
270 273 215 200 231 238 12 27 4 227 207 215 203 116 93 86 124 131 134 144 153 158 163 161 145 126 119 126 125 120 130 133 116 108 90 72 67 60 55 54 52 45 37 32 29 28 29 30 31 32 32 32 34 34 34 34 27 18 13 17 23 25 23 1 304 281 283 281 283 291 286 270 272 274 266 256 250 247 249 251 247 242 240 237 234 232 231
253 255 223 217 233 96 77 57 42 45 80 109 110 102 92 94 127 136 143 151 156 157 155 147 134 127 129 132 130 134 137 129 135 128 96 69 69 62 51 53 51 41 33 30 26 24 23 23 25 26 24 25 29 31 30 30 28 21 16 20 27 29 29 22 3 333 318 310 300 293 285 279 286 289 269 257 257 254 243 233 234 239 240 243 243 239 236
234 246 233 208 151 177 169 131 117 107 86 97 130 131 118 122 138 142 147 154 154 148 143 141 140 141 140 137 152 161 150 120 118 120 95 70 63 56 47 48 46 32 25 27 23 21 20 17 18 20 16 15 18 21 24 24 22 17 14 18 21 21 23 22 20 21 14 355 340 321 302 287 279 281 285 279 267 260 253 245 241 243 241 241 243 244 243
213 244 248 222 214 234 208 163 158 201 217 153 143 157 151 151 153 150 151 155 156 155 153 152 152 149 139 140 173 168 148 130 126 118 94 70 57 51 40 40 36 20 18 23 20 17 14 7 13 18 12 8 11 10 11 16 15 6 3 8 12 12 13 13 17 27 25 10 3 355 336 316 295 282 282 285 276 261 260 261 258 255 250 247 245 243 243
221 231 250 229 224 262 158 141 141 162 139 94 102 187 186 168 164 165 166 166 172 175 160 146 153 165 157 143 158 160 149 140 137 120 81 47 43 42 33 32 26 14 15 18 13 12 5 357 7 13 5 5 12 6 2 8 7 355 351 355 1 4 6 5 9 19 17 8 11 14 3 346 321 299 284 278 274 266 264 269 272 270 266 260 254 247 244
242 232 237 233 225 90 113 124 124 120 109 106 156 221 187 168 170 174 176 177 188 201 166 132 135 161 139 133 142 144 146 150 145 122 77 34 27 30 25 19 12 10 14 11 6 6 360 352 359 2 351 349 355 355 357 2 2 353 346 344 346 351 357 359 2 7 5 2 13 14 3 357 350 329 305 284 275 274 277 277 270 268 270 270 266 259 253
239 236 238 233 113 109 133 136 130 127 124 150 204 223 148 158 161 166 182 178 162 165 153 115 96 92 99 115 137 136 129 144 161 146 100 44 24 20 19 15 11 10 10 4 1 360 355 353 353 345 331 325 328 337 348 354 354 349 340 337 338 341 346 352 356 357 354 356 8 6 349 345 353 351 332 307 286 274 274 277 271 264 266 269 270 268 265
239 242 239 220 131 122 143 138 130 136 158 191 157 93 114 146 150 157 172 139 100 109 115 92 86 107 113 115 131 134 125 135 166 169 112 60 29 20 19 19 20 19 9 360 357 354 351 351 346 334 326 326 329 334 339 343 343 339 335 335 336 335 338 345 351 354 355 353 354 353 343 336 340 344 343 337 322 295 276 275 273 266 264 266 269 270 269
237 238 234 221 165 150 157 149 133 122 260 119 110 101 103 116 127 142 137 107 91 104 113 93 90 116 118 107 111 124 130 143 155 124 80 59 35 22 20 15 13 15 8 354 347 344 343 343 341 338 335 333 334 335 333 334 334 331 330 333 333 332 335 338 344 354 360 353 346 347 346 335 328 331 338 343 340 332 320 307 296 285 276 272 272 271 268
244 232 232 239 145 142 146 145 116 92 103 116 118 115 113 112 113 116 115 111 106 99 104 115 123 126 121 117 117 122 132 127 90 69 53 41 25 17 13 4 359 359 355 347 341 337 336 337 338 340 338 332 330 329 326 323 324 324 325 328 329 328 328 331 339 348 350 348 350 350 339 324 319 324 336 341 339 338 336 325 313 309 304 293 284 278 273
324 81 99 113 147 138 118 103 100 107 116 119 112 116 128 133 138 139 128 122 120 114 117 134 156 157 132 121 120 122 120 90 59 38 27 24 18 9 1 355 353 350 344 340 338 336 336 335 333 330 329 326 326 326 322 319 319 320 321 320 319 321 324 329 335 338 340 346 345 330 323 328 330 328 330 333 333 333 332 327 316 309 304 293 287 286 283
117 118 117 117 134 136 120 115 114 115 120 123 118 129 140 133 135 147 140 131 134 143 151 154 200 201 155 125 132 123 64 37 31 20 13 10 5 360 356 352 349 346 340 337 335 334 334 334 332 328 325 323 323 323 323 323 322 318 314 310 307 311 319 325 328 331 338 340 326 321 330 339 335 322 314 312 317 324 327 325 314 300 293 286 282 284 286
179 165 157 154 162 154 136 137 139 128 120 121 129 148 138 123 123 128 129 132 139 145 153 174 201 196 172 152 146 100 25 359 359 0 359 358 356 353 351 349 347 345 342 336 333 331 331 332 332 329 326 324 321 317 316 318 317 311 304 302 302 305 310 316 323 330 335 331 324 329 335 325 317 319 317 311 309 311 310 307 303 304 306 302 291 286 285
220 168 144 153 165 162 160 165 161 150 142 131 120 123 128 124 124 124 123 133 148 156 170 187 187 174 166 154 133 74 348 347 349 347 344 345 345 343 342 343 343 342 339 333 331 330 329 328 327 326 324 321 318 315 314 315 315 312 307 301 300 302 304 309 319 327 329 325 322 320 320 319 320 321 318 311 306 304 304 303 303 307 311 312 308 300 291
216 169 145 151 156 170 192 202 193 175 164 151 137 133 136 131 126 128 133 146 166 171 171 168 164 168 167 149 132 290 312 327 329 330 331 332 332 335 337 337 336 334 331 331 331 329 328 327 325 323 321 318 317 316 315 314 313 311 310 307 301 298 299 305 316 322 319 318 317 312 312 317 314 306 304 306 307 308 309 307 305 307 308 308 311 310 301
231 331 21 168 188 208 202 208 214 196 167 156 153 156 167 172 167 162 162 160 155 156 162 165 173 188 191 187 212 270 292 299 306 316 324 325 326 329 330 329 330 331 329 329 330 328 327 326 325 323 322 321 321 318 314 313 314 312 310 309 303 297 296 301 307 310 310 314 316 313 311 312 309 304 302 303 304 307 310 309 307 309 311 310 309 306 301
231 341 0 6 332 316 218 201 215 196 162 160 160 157 168 188 186 178 184 183 173 170 176 183 192 204 215 218 225 246 266 276 291 304 311 316 319 321 324 324 326 327 327 329 332 333 331 324 318 318 323 324 321 318 313 310 309 308 306 305 302 295 293 295 296 297 311 322 319 314 312 312 310 309 308 305 304 305 309 311 310 311 312 312 311 307 299
236 329 24 24 346 337 23 200 212 191 176 178 171 161 170 187 190 189 189 187 193 203 198 198 212 220 224 228 230 239 257 271 283 292 300 307 309 313 318 321 322 324 328 329 330 331 333 328 321 322 329 329 320 315 314 310 307 305 302 303 304 297 287 285 283 280 292 310 315 313 315 315 311 310 311 308 306 305 307 308 310 312 312 312 314 311 303
278 263 107 187 270 290 291 214 196 188 185 186 186 187 189 193 204 209 192 178 188 206 207 209 214 204 194 206 233 247 253 261 273 284 293 300 303 308 315 318 321 325 327 326 322 324 329 330 330 335 339 331 321 314 308 302 299 300 298 296 298 290 278 279 284 280 285 299 309 311 314 314 311 311 311 308 306 305 306 307 309 311 312 313 315 314 307
267 258 250 244 250 261 261 237 206 190 183 181 185 194 197 195 203 214 207 198 204 210 211 220 226 206 153 179 229 244 248 255 270 281 286 292 299 305 311 318 322 323 324 324 322 324 328 327 330 341 342 327 322 322 311 295 288 290 290 287 284 282 281 288 295 293 296 305 307 305 303 299 296 296 298 300 301 302 305 307 309 311 314 316 316 314 310
263 253 244 241 243 241 241 241 228 199 184 184 189 197 203 198 192 197 212 224 216 202 205 218 226 233 239 222 224 238 248 252 260 268 276 289 299 303 309 318 321 320 322 325 323 323 326 325 328 339 340 325 323 332 332 315 302 297 296 291 286 286 292 302 305 303 301 299 298 296 291 287 286 288 292 295 297 299 302 305 308 311 313 314 313 309 309
251 247 237 231 236 239 235 235 234 218 204 202 202 203 203 188 175 187 212 227 212 191 197 210 214 217 222 221 223 236 244 246 253 266 280 293 300 304 309 317 321 321 322 324 323 323 322 322 326 334 336 328 325 331 333 329 319 308 304 301 297 295 298 302 305 304 298 291 288 287 286 288 293 298 300 300 300 301 302 302 303 303 302 303 306 307 308
246 248 247 240 239 240 233 227 229 225 215 207 202 204 204 187 172 185 207 213 213 212 206 203 210 215 217 220 225 231 240 247 256 269 281 290 298 306 312 317 322 323 320 319 321 320 318 317 321 326 326 323 323 325 325 322 318 313 307 301 298 299 301 300 298 294 291 290 291 289 290 295 302 306 306 305 302 301 299 295 295 295 296 300 305 307 308
243 239 244 245 241 240 237 231 227 220 212 205 201 204 205 194 182 189 200 203 208 211 206 203 210 215 215 219 224 230 237 244 254 266 278 288 297 305 313 318 320 321 320 318 316 314 313 315 318 319 318 315 318 325 328 326 322 318 312 306 303 304 306 304 300 295 293 293 293 292 294 299 302 300 298 297 297 296 294 292 292 294 296 299 300 302 304
244 235 242 247 242 242 243 240 234 226 219 213 208 208 210 207 200 200 205 208 207 206 204 204 205 209 216 223 227 231 237 242 254 267 275 284 293 300 309 318 320 319 319 319 316 314 314 315 314 314 310 308 312 321 329 331 329 326 321 315 309 302 295 290 289 290 289 289 290 292 294 297 296 294 293 295 295 294 292 291 291 292 294 296 297 300 300
280 252 244 246 246 247 249 244 238 232 224 217 215 213 214 215 214 211 211 211 208 206 206 206 204 208 218 224 225 229 236 241 251 265 274 281 290 296 303 310 316 317 316 315 315 317 317 314 312 312 309 307 310 318 325 329 329 326 320 315 310 303 294 285 281 280 279 280 286 294 298 298 296 293 292 292 292 291 291 289 288 289 291 292 293 295 294
321 307 291 282 266 254 253 248 240 235 229 222 221 220 218 217 217 216 212 210 210 209 209 208 207 211 216 219 221 227 234 241 250 262 272 279 286 295 301 305 311 315 315 314 314 316 316 312 308 308 308 309 312 317 322 324 322 318 315 314 312 309 305 300 295 291 289 289 291 293 292 292 292 291 290 289 288 289 290 289 286 286 286 283 282 289 293
329 321 314 311 303 284 274 266 251 240 235 228 221 221 221 219 217 216 213 210 209 209 206 204 206 210 213 215 219 222 228 237 246 257 270 282 294 300 301 303 306 307 310 313 314 312 311 309 307 305 305 308 313 318 321 322 321 317 314 312 312 311 309 307 306 305 302 300 297 291 287 288 290 289 288 287 285 284 284 283 282 284 285 283 282 287 291
324 313 309 312 317 319 310 295 272 251 244 237 224 218 218 217 216 218 217 213 209 205 200 198 203 208 208 210 214 220 228 236 244 257 271 282 292 299 301 305 308 307 308 311 312 308 306 309 308 302 300 305 314 316 315 317 320 316 310 309 311 311 307 304 304 305 303 301 299 297 293 290 287 284 284 285 286 286 283 281 282 285 288 288 286 284 281
323 317 315 315 318 321 319 307 287 267 255 247 233 224 223 222 221 221 220 215 211 205 199 198 201 203 204 206 211 216 223 230 239 254 271 283 294 302 306 307 306 306 306 307 307 306 306 312 312 307 305 309 315 311 307 313 318 313 307 307 311 312 309 305 303 303 302 302 301 299 294 289 285 285 286 287 288 287 285 283 283 284 284 284 284 282 277
323 322 323 322 320 318 312 298 285 273 261 251 241 231 228 228 226 225 223 218 211 204 199 200 201 200 201 204 206 208 212 219 233 249 265 282 295 299 302 304 305 306 306 303 303 306 310 312 315 315 313 313 313 307 304 308 310 308 309 311 312 310 309 307 305 303 302 302 300 298 296 294 293 292 291 290 287 284 282 281 282 283 282 281 280 280 283
321 320 322 324 324 321 311 292 278 270 264 258 253 247 242 235 227 222 220 218 210 203 200 199 197 197 199 200 200 203 207 211 221 236 255 276 286 291 299 305 303 301 297 294 300 310 312 311 314 317 316 314 310 307 305 304 301 302 307 312 313 311 308 306 306 304 302 300 299 298 298 298 297 295 293 290 286 283 280 279 281 284 284 281 278 279 285
321 319 321 323 322 322 319 307 291 275 263 257 255 255 255 247 231 221 220 217 208 201 198 195 192 194 197 197 197 200 203 208 218 227 242 264 277 287 299 303 300 296 293 293 303 311 309 307 312 316 313 306 301 300 302 305 307 309 312 313 311 309 307 304 303 302 299 299 300 299 298 298 297 295 293 289 286 285 283 282 282 283 282 279 277 277 278
321 317 319 320 317 315 317 316 308 293 277 268 261 256 257 252 236 225 223 217 203 195 194 191 189 190 192 192 194 196 194 199 215 224 230 253 274 287 296 302 309 308 299 299 309 317 317 316 318 314 301 295 297 301 302 303 306 311 315 313 309 306 305 304 303 300 297 297 300 300 298 298 296 293 291 289 288 287 285 283 281 280 277 273 271 271 270
318 317 319 319 316 311 307 308 310 303 290 280 270 258 256 254 238 225 221 216 200 192 191 190 188 189 189 186 188 194 195 197 209 218 224 244 263 269 275 289 307 305 297 300 313 327 331 325 316 304 296 298 304 307 307 306 307 310 312 310 307 305 304 302 300 297 294 295 298 301 301 299 296 292 289 287 286 285 284 284 283 280 276 274 272 271 271
314 315 315 313 311 308 303 301 305 305 298 290 280 263 255 258 245 228 222 219 203 191 188 186 183 185 185 180 180 188 196 199 206 217 227 240 253 255 262 283 302 300 296 302 316 330 333 325 312 304 304 309 312 313 312 312 313 314 312 309 308 307 305 302 301 299 296 294 295 299 301 300 298 296 292 288 285 285 286 287 285 281 276 272 271 271 271
310 310 310 308 306 305 302 297 296 294 293 296 291 267 249 256 250 233 226 223 205 186 180 181 180 179 177 176 177 184 193 200 208 221 233 241 248 249 252 264 291 298 298 305 317 328 329 319 306 302 306 312 316 318 320 319 317 315 314 313 312 309 306 304 303 302 300 298 297 297 299 299 297 296 294 290 287 287 288 287 284 280 276 271 268 270 271
309 308 308 308 305 302 299 298 296 290 283 289 295 277 249 245 240 225 220 218 200 178 171 175 182 182 178 176 181 187 195 205 211 219 230 238 243 248 254 263 289 294 292 299 317 331 325 307 298 299 305 311 316 321 325 324 320 317 316 314 313 311 308 307 307 305 305 303 300 298 297 296 295 295 294 291 289 289 287 281 276 275 274 270 269 271 273
309 307 308 309 308 304 299 293 290 287 280 278 280 274 258 245 229 213 205 200 192 181 174 174 180 181 175 175 184 191 197 205 210 213 222 230 229 235 260 287 292 277 280 295 321 332 315 301 298 304 312 317 321 326 328 324 320 319 317 315 315 313 309 307 309 311 310 308 305 301 299 296 295 294 293 290 288 287 283 277 273 274 275 274 273 274 275
313 312 312 309 305 303 300 292 284 281 278 270 261 259 258 242 220 208 198 191 190 189 182 176 178 178 172 169 178 186 190 199 205 208 215 225 229 237 259 280 276 270 278 299 325 320 305 301 305 313 321 326 331 335 333 326 324 323 320 318 319 319 314 312 312 313 312 311 309 305 302 298 296 295 292 289 286 284 281 279 278 278 278 278 275 272 273
320 319 319 313 303 298 299 295 288 283 282 274 259 241 229 211 199 198 193 186 180 175 171 171 179 181 174 172 179 185 187 195 204 208 212 224 244 259 263 259 266 278 291 308 315 305 303 308 313 319 328 336 342 344 338 332 329 326 321 318 318 319 317 316 316 314 313 313 312 308 304 299 295 293 291 288 284 282 282 281 281 281 283 283 277 270 268
325 323 320 316 311 307 305 301 298 296 293 287 275 247 207 187 188 192 190 185 177 169 167 175 183 181 176 178 185 187 190 196 201 206 208 215 240 263 261 258 274 288 298 309 312 310 312 318 322 326 335 343 346 344 341 338 334 329 324 322 321 319 318 319 320 319 318 316 314 311 309 303 296 291 289 286 284 283 284 284 285 286 288 285 276 270 269
333 328 323 318 317 315 309 298 294 296 294 289 286 272 210 185 189 190 188 183 177 170 168 171 174 174 177 179 177 181 195 199 191 190 201 211 232 259 268 283 300 305 304 304 307 311 316 321 324 329 339 346 343 340 341 341 338 334 330 326 322 319 319 322 325 324 322 318 313 309 309 310 305 296 289 286 285 285 286 288 290 293 293 287 279 275 275
345 339 336 335 334 332 323 302 292 291 285 287 286 259 201 177 171 174 179 179 171 163 160 162 164 170 178 177 173 186 212 214 196 195 207 215 237 258 256 263 287 297 295 291 292 298 307 314 315 317 325 333 335 334 334 336 339 338 337 335 331 324 319 321 324 323 320 320 318 312 306 307 307 300 290 282 277 276 277 279 285 291 294 292 286 281 277
0 359 1 359 357 4 13 6 343 325 302 297 267 180 177 171 163 167 174 173 159 150 158 167 167 167 172 174 176 192 212 215 214 228 229 221 243 267 272 280 285 282 280 285 289 294 303 307 305 303 312 322 325 324 326 331 335 334 334 338 340 335 326 324 327 327 323 321 322 320 314 307 304 301 294 282 270 265 266 267 269 274 278 281 283 283 277
8 15 20 16 10 20 37 35 28 43 79 116 141 151 159 163 162 163 167 166 158 158 169 174 169 163 166 172 175 181 190 199 220 243 240 229 235 258 279 294 297 287 276 280 286 291 297 301 301 301 306 311 315 318 321 328 333 329 327 333 341 342 336 331 332 334 332 328 327 328 325 319 313 310 307 298 283 272 269 269 273 277 279 278 279 282 281